Home   Weather   Haldimand   Past weeks
Flag for Canada

Past Weather in Haldimand, Ontario, Canada — Yesterday and Last 2 Weeks

Now
50 °F

Partly sunny.


Feels Like: 46 °F
Forecast: 66 / 48 °F
Wind: 9 mph from West

Location: Hamilton Airport

Current Time: Jun 1, 2020 at 9:23:25 am

Latest Report: Jun 1, 2020 at 8:00 am


Visibility: 15 mi

Pressure: 30.27 "Hg

Humidity: 82%

Dew Point: 45 °F

Location of HaldimandLocation

Past Weather in Haldimand — Graph

°F

Haldimand Temperature Yesterday

Maximum temperature yesterday: 61 °F (at 5:00 pm)
Minimum temperature yesterday: 39 °F (at 6:00 am)
Average temperature yesterday: 51 °F

High & Low Weather Summary for the Past Weeks

 TemperatureHumidityPressure
High88 °F (May 26, 3:00 pm)100% (May 18, 2:00 am)30.35 "Hg (May 18, 2:00 am)
Low39 °F (May 31, 6:00 am)27% (May 21, 7:00 pm)29.74 "Hg (May 29, 3:00 pm)
Average61 °F76%30.08 "Hg
* Reported May 17 8:00 am — Jun 1 8:00 am, Haldimand. Weather by CustomWeather, © 2020

Note: Actual official high and low records may vary slightly from our data, if they occured in-between our weather recording intervals... More about our weather records

Haldimand Weather History for the Previous 24 Hours

Scroll right to see more
 ConditionsComfort  
Time TempWeatherWind HumidityBarometerVisibility
8:00 am
Mon, Jun 1
50 °FPartly sunny.9 mph82%30.27 "Hg15 mi
7:00 am48 °FBroken clouds.7 mph82%30.27 "Hg15 mi
6:00 am46 °FScattered clouds.8 mph87%30.26 "Hg15 mi
5:00 am46 °FPassing clouds.8 mph93%30.25 "Hg15 mi
4:00 am48 °FPassing clouds.7 mph87%30.23 "Hg15 mi
3:00 am46 °FPassing clouds.7 mph87%30.23 "Hg15 mi
2:00 am46 °FPartly cloudy.8 mph82%30.23 "Hg15 mi
1:00 am46 °FPassing clouds.8 mph76%30.24 "Hg15 mi
12:00 am48 °FPassing clouds.6 mph66%30.24 "Hg15 mi
11:00 pm
Sun, May 31
48 °FPassing clouds.7 mph71%30.25 "Hg15 mi
10:00 pm52 °FPassing clouds.7 mph62%30.25 "Hg15 mi
9:00 pm54 °FPassing clouds.3 mph54%30.24 "Hg15 mi
8:00 pm55 °FPartly sunny.5 mph47%30.24 "Hg15 mi
7:00 pm57 °FPartly sunny.9 mph44%30.23 "Hg15 mi
6:00 pm57 °FPartly sunny.8 mph44%30.23 "Hg15 mi
5:00 pm61 °FScattered clouds.7 mph39%30.23 "Hg15 mi
4:00 pm59 °FPartly sunny.10 mph45%30.25 "Hg15 mi
3:00 pm59 °FPartly sunny.12 mph48%30.26 "Hg15 mi
2:00 pm57 °FPartly sunny.12 mph44%30.26 "Hg15 mi
1:00 pm54 °FPartly sunny.12 mph51%30.27 "Hg15 mi
12:00 pm54 °FPartly sunny.12 mph51%30.27 "Hg15 mi
11:00 am55 °FPartly sunny.10 mph44%30.27 "Hg15 mi
10:00 am54 °FPassing clouds.10 mph47%30.27 "Hg15 mi
9:00 am50 °FPassing clouds.8 mph71%30.26 "Hg15 mi
Weather by CustomWeather, © 2020

See weather overview

Advertising